This is the latest recevied weather packets stored in our database for station/object KE1THD. If no packets are shown the sender has not sent any weather packets the latest 10 day(s).
| Time | Temp. | Humidity | Pressure | Rain* | Wind** | Luminosity | Snow |
|---|---|---|---|---|---|---|---|
| 1777404950 | 15.56° C | 56% | 1014.5 hPa | 0 mm | - | 734 W/m² | - |
| 1777404646 | 15.56° C | 55% | 1015 hPa | 0 mm | - | 703 W/m² | - |
| 1777404342 | 16.11° C | 56% | 1014.7 hPa | 0 mm | - | 680 W/m² | - |
| 1777404039 | 15.56° C | 56% | 1015 hPa | 0 mm | - | 690 W/m² | - |
| 1777403734 | 16.11° C | 56% | 1015 hPa | 0 mm | - | 673 W/m² | - |
| 1777403432 | 16.11° C | 57% | 1015.1 hPa | 0 mm | - | 745 W/m² | - |
| 1777403127 | 16.11° C | 57% | 1015.4 hPa | 0 mm | - | 813 W/m² | - |
| 1777402823 | 16.11° C | 56% | 1015.2 hPa | 0 mm | - | 731 W/m² | - |
| 1777402521 | 16.11° C | 56% | 1015.7 hPa | 0 mm | - | 788 W/m² | - |
| 1777402217 | 16.11° C | 55% | 1015.8 hPa | 0 mm | - | 555 W/m² | - |
| 1777401912 | 15.56° C | 55% | 1015.6 hPa | 0 mm | - | 717 W/m² | - |
| 1777401611 | 16.11° C | 56% | 1015.9 hPa | 0 mm | - | 567 W/m² | - |
| 1777401308 | 15.56° C | 59% | 1016 hPa | 0 mm | - | 744 W/m² | - |
| 1777401003 | 15.56° C | 59% | 1015.8 hPa | 0 mm | - | 534 W/m² | - |
| 1777400699 | 15° C | 59% | 1016 hPa | 0 mm | - | 802 W/m² | - |
| 1777400397 | 15° C | 59% | 1015.8 hPa | 0 mm | - | 770 W/m² | - |
| 1777400092 | 15.56° C | 57% | 1016 hPa | 0 mm | - | 750 W/m² | - |
| 1777399790 | 15.56° C | 57% | 1016 hPa | 0 mm | - | 738 W/m² | - |
| 1777399486 | 15° C | 60% | 1015.7 hPa | 0 mm | - | 771 W/m² | - |
| 1777399184 | 14.44° C | 60% | 1016.1 hPa | 0 mm | - | 729 W/m² | - |
| 1777398881 | 14.44° C | 61% | 1016.2 hPa | 0 mm | - | 654 W/m² | - |
| 1777398578 | 15° C | 62% | 1016.1 hPa | 0 mm | - | 382 W/m² | - |
| 1777398274 | 14.44° C | 61% | 1016.1 hPa | 0 mm | - | 752 W/m² | - |
| 1777397972 | 15° C | 59% | 1016.3 hPa | 0 mm | - | 631 W/m² | - |
| 1777397667 | 14.44° C | 58% | 1016.3 hPa | 0 mm | - | 537 W/m² | - |
* Rain latest hour (hover to see other rain measurements)
** Current wind speed in m/s (hover to see current wind gust speed)